Location: Dal�� Lhota
(48.7500°N, 14.0167°E)
Time: 22:49:19
(UTC+00:00)

In-Cosmos 22 - Pass Details

Date: 24 September 2020
Orbit: 785 x 877 km, 81.2° (Epoch: 25 October)

Event Time Altitude Azimuth Distance (km) Brightness Sun altitude
Rises 17:20:35 0° 351° (N) 3,292 7.5 -4.7°
Reaches altitude 10° 17:23:01 10° 357° (N) 2,363 6.6 -5.1°
Maximum altitude 17:28:12 51° 73° (ENE) 1,002 4.3 -6.0°
Drops below altitude 10° 17:33:25 10° 149° (SSE) 2,385 6.2 -6.8°
Sets 17:35:53 0° 155° (SSE) 3,326 7.0 -7.2°
